Time,TemperatureF,DewpointF,PressureIn,WindDirection,WindDirectionDegrees,WindSpeedMPH,WindSpeedGustMPH,Humidity,HourlyPrecipIn,Conditions,Clouds,dailyrainin,SolarRadiationWatts/m^2,SoftwareType,DateUTC
2013-03-29 00:05:00,44.8,40.0,30.02,NNW,329,3.0,-999.0,84,-99.99,,,0.00,0,weatherlink.com 1.10,2013-03-29 07:05:00,
2013-03-29 00:20:00,43.7,41.0,30.03,WSW,246,3.0,-999.0,90,-99.99,,,0.00,0,weatherlink.com 1.10,2013-03-29 07:20:00,
2013-03-29 00:35:00,43.8,41.0,30.02,WSW,246,2.0,-999.0,89,-99.99,,,0.00,0,weatherlink.com 1.10,2013-03-29 07:35:00,
2013-03-29 00:50:00,44.4,41.0,30.03,WSW,246,2.0,-999.0,86,-99.99,,,0.00,0,weatherlink.com 1.10,2013-03-29 07:50:00,
2013-03-29 01:05:00,44.7,41.0,30.02,WSW,246,0.0,-999.0,85,-99.99,,,0.00,0,weatherlink.com 1.10,2013-03-29 08:05:00,
2013-03-29 01:20:00,44.2,41.0,30.03,WSW,246,2.0,-999.0,88,-99.99,,,0.00,0,weatherlink.com 1.10,2013-03-29 08:20:00,
2013-03-29 01:35:00,43.5,41.0,30.03,WSW,246,3.0,-999.0,89,-99.99,,,0.00,0,weatherlink.com 1.10,2013-03-29 08:35:00,
2013-03-29 01:50:00,44.3,41.0,30.03,WSW,246,2.0,-999.0,87,-99.99,,,0.00,0,weatherlink.com 1.10,2013-03-29 08:50:00,
2013-03-29 02:05:00,43.6,41.0,30.03,WSW,246,0.0,-999.0,89,-99.99,,,0.00,0,weatherlink.com 1.10,2013-03-29 09:05:00,
2013-03-29 02:20:00,43.7,40.0,30.03,WSW,246,0.0,-999.0,87,-99.99,,,0.00,0,weatherlink.com 1.10,2013-03-29 09:20:00,
2013-03-29 02:35:00,43.7,40.0,30.04,WSW,246,3.0,-999.0,88,-99.99,,,0.00,0,weatherlink.com 1.10,2013-03-29 09:35:00,
2013-03-29 02:50:00,43.1,40.0,30.04,WSW,246,0.0,-999.0,89,-99.99,,,0.00,0,weatherlink.com 1.10,2013-03-29 09:50:00,
2013-03-29 03:05:00,43.1,40.0,30.04,WSW,246,0.0,-999.0,89,-99.99,,,0.00,0,weatherlink.com 1.10,2013-03-29 10:05:00,
2013-03-29 03:20:00,43.0,40.0,30.04,WSW,246,0.0,-999.0,89,-99.99,,,0.00,0,weatherlink.com 1.10,2013-03-29 10:20:00,
2013-03-29 03:35:00,43.0,40.0,30.04,WSW,246,0.0,-999.0,89,-99.99,,,0.00,0,weatherlink.com 1.10,2013-03-29 10:35:00,
2013-03-29 03:50:00,43.4,40.0,30.04,WSW,246,2.0,-999.0,88,-99.99,,,0.00,0,weatherlink.com 1.10,2013-03-29 10:50:00,
2013-03-29 04:05:00,42.1,39.0,30.04,WSW,246,3.0,-999.0,90,-99.99,,,0.00,0,weatherlink.com 1.10,2013-03-29 11:05:00,
2013-03-29 04:20:00,41.6,39.0,30.04,WSW,246,5.0,-999.0,91,-99.99,,,0.00,0,weatherlink.com 1.10,2013-03-29 11:20:00,
2013-03-29 04:35:00,41.4,39.0,30.04,WSW,246,4.0,-999.0,91,-99.99,,,0.00,0,weatherlink.com 1.10,2013-03-29 11:35:00,
2013-03-29 04:50:00,41.4,39.0,30.05,WSW,246,4.0,-999.0,91,-99.99,,,0.00,0,weatherlink.com 1.10,2013-03-29 11:50:00,
2013-03-29 05:05:00,41.8,39.0,30.05,WSW,246,2.0,-999.0,90,-99.99,,,0.00,0,weatherlink.com 1.10,2013-03-29 12:05:00,
2013-03-29 05:20:00,41.3,39.0,30.05,WSW,246,3.0,-999.0,90,-99.99,,,0.00,0,weatherlink.com 1.10,2013-03-29 12:20:00,
2013-03-29 05:35:00,41.1,39.0,30.05,WSW,246,3.0,-999.0,91,-99.99,,,0.00,0,weatherlink.com 1.10,2013-03-29 12:35:00,
2013-03-29 05:50:00,41.5,39.0,30.06,WSW,246,3.0,-999.0,90,-99.99,,,0.00,0,weatherlink.com 1.10,2013-03-29 12:50:00,
2013-03-29 06:05:00,40.4,38.0,30.06,WSW,246,1.0,-999.0,90,-99.99,,,0.00,0,weatherlink.com 1.10,2013-03-29 13:05:00,
2013-03-29 06:20:00,40.2,38.0,30.06,WSW,246,3.0,-999.0,91,-99.99,,,0.00,0,weatherlink.com 1.10,2013-03-29 13:20:00,
2013-03-29 06:35:00,41.5,39.0,30.07,WSW,246,3.0,-999.0,89,-99.99,,,0.00,0,weatherlink.com 1.10,2013-03-29 13:35:00,
2013-03-29 06:50:00,40.4,38.0,30.07,WSW,246,4.0,-999.0,90,-99.99,,,0.00,0,weatherlink.com 1.10,2013-03-29 13:50:00,
2013-03-29 07:05:00,40.7,38.0,30.07,WSW,246,0.0,-999.0,90,-99.99,,,0.00,11,weatherlink.com 1.10,2013-03-29 14:05:00,
2013-03-29 07:20:00,41.2,39.0,30.07,WSW,246,1.0,-999.0,90,-99.99,,,0.00,23,weatherlink.com 1.10,2013-03-29 14:20:00,
2013-03-29 07:35:00,41.7,39.0,30.08,WSW,246,0.0,-999.0,89,-99.99,,,0.00,49,weatherlink.com 1.10,2013-03-29 14:35:00,
2013-03-29 07:50:00,42.4,39.0,30.08,WSW,246,0.0,-999.0,87,-99.99,,,0.00,155,weatherlink.com 1.10,2013-03-29 14:50:00,
2013-03-29 08:05:00,42.4,39.0,30.08,WSW,246,0.0,-999.0,89,-99.99,,,0.00,113,weatherlink.com 1.10,2013-03-29 15:05:00,
2013-03-29 08:20:00,42.3,39.0,30.09,WSW,246,0.0,-999.0,88,-99.99,,,0.00,104,weatherlink.com 1.10,2013-03-29 15:20:00,
2013-03-29 08:35:00,42.4,39.0,30.09,WSW,246,2.0,-999.0,89,-99.99,,,0.00,139,weatherlink.com 1.10,2013-03-29 15:35:00,
2013-03-29 08:50:00,42.9,40.0,30.09,WSW,246,0.0,-999.0,88,-99.99,,,0.00,185,weatherlink.com 1.10,2013-03-29 15:50:00,
2013-03-29 09:05:00,43.8,41.0,30.10,WSW,246,0.0,-999.0,88,-99.99,,,0.00,174,weatherlink.com 1.10,2013-03-29 16:05:00,
2013-03-29 09:20:00,44.8,41.0,30.09,WSW,246,0.0,-999.0,86,-99.99,,,0.00,185,weatherlink.com 1.10,2013-03-29 16:20:00,
2013-03-29 09:35:00,45.8,42.0,30.09,WSW,246,0.0,-999.0,86,-99.99,,,0.00,332,weatherlink.com 1.10,2013-03-29 16:35:00,
2013-03-29 09:50:00,47.3,42.0,30.09,WSW,246,0.0,-999.0,81,-99.99,,,0.00,380,weatherlink.com 1.10,2013-03-29 16:50:00,
2013-03-29 10:05:00,47.9,42.0,30.09,WSW,246,0.0,-999.0,80,-99.99,,,0.00,381,weatherlink.com 1.10,2013-03-29 17:05:00,
2013-03-29 10:20:00,48.5,43.0,30.09,East,100,1.0,-999.0,80,-99.99,,,0.00,587,weatherlink.com 1.10,2013-03-29 17:20:00,
2013-03-29 10:35:00,49.5,43.0,30.09,East,89,0.0,-999.0,77,-99.99,,,0.00,650,weatherlink.com 1.10,2013-03-29 17:35:00,
2013-03-29 10:50:00,51.1,43.0,30.09,ENE,63,0.0,-999.0,74,-99.99,,,0.00,680,weatherlink.com 1.10,2013-03-29 17:50:00,
2013-03-29 11:05:00,51.6,43.0,30.09,NE,48,0.0,-999.0,72,-99.99,,,0.00,745,weatherlink.com 1.10,2013-03-29 18:05:00,
2013-03-29 11:20:00,51.1,43.0,30.08,NNE,13,3.0,-999.0,74,-99.99,,,0.00,206,weatherlink.com 1.10,2013-03-29 18:20:00,
2013-03-29 11:35:00,51.2,43.0,30.08,NNW,333,3.0,-999.0,73,-99.99,,,0.00,299,weatherlink.com 1.10,2013-03-29 18:35:00,
2013-03-29 11:50:00,52.4,43.0,30.09,NNW,344,3.0,-999.0,70,-99.99,,,0.00,257,weatherlink.com 1.10,2013-03-29 18:50:00,
2013-03-29 12:05:00,52.4,42.0,30.08,North,355,4.0,-999.0,69,-99.99,,,0.00,287,weatherlink.com 1.10,2013-03-29 19:05:00,
2013-03-29 12:20:00,52.6,42.0,30.08,NNW,336,5.0,-999.0,68,-99.99,,,0.00,346,weatherlink.com 1.10,2013-03-29 19:20:00,
2013-03-29 12:35:00,53.7,42.0,30.07,NE,36,2.0,-999.0,65,-99.99,,,0.00,362,weatherlink.com 1.10,2013-03-29 19:35:00,
2013-03-29 12:50:00,55.1,42.0,30.07,NE,55,4.0,-999.0,62,-99.99,,,0.00,346,weatherlink.com 1.10,2013-03-29 19:50:00,
2013-03-29 13:05:00,56.5,44.0,30.07,NE,48,4.0,-999.0,63,-99.99,,,0.00,459,weatherlink.com 1.10,2013-03-29 20:05:00,
2013-03-29 13:20:00,56.1,42.0,30.07,NNE,28,0.0,-999.0,60,-99.99,,,0.00,417,weatherlink.com 1.10,2013-03-29 20:20:00,
2013-03-29 13:35:00,56.5,42.0,30.07,NNE,28,0.0,-999.0,58,-99.99,,,0.00,287,weatherlink.com 1.10,2013-03-29 20:35:00,
2013-03-29 13:50:00,57.2,42.0,30.07,NE,42,4.0,-999.0,58,-99.99,,,0.00,531,weatherlink.com 1.10,2013-03-29 20:50:00,
2013-03-29 14:05:00,57.5,42.0,30.06,SSE,155,4.0,-999.0,57,-99.99,,,0.00,1078,weatherlink.com 1.10,2013-03-29 21:05:00,
2013-03-29 14:20:00,57.5,42.0,30.05,WNW,293,8.0,-999.0,56,-99.99,,,0.00,932,weatherlink.com 1.10,2013-03-29 21:20:00,
2013-03-29 14:35:00,58.0,42.0,30.05,NNE,20,2.0,-999.0,56,-99.99,,,0.00,865,weatherlink.com 1.10,2013-03-29 21:35:00,
2013-03-29 14:50:00,58.8,41.0,30.05,NNE,13,7.0,-999.0,53,-99.99,,,0.00,272,weatherlink.com 1.10,2013-03-29 21:50:00,
2013-03-29 15:05:00,60.0,43.0,30.04,ENE,66,1.0,-999.0,53,-99.99,,,0.00,858,weatherlink.com 1.10,2013-03-29 22:05:00,
2013-03-29 15:20:00,59.6,42.0,30.04,NNE,17,4.0,-999.0,52,-99.99,,,0.00,935,weatherlink.com 1.10,2013-03-29 22:20:00,
2013-03-29 15:35:00,59.5,42.0,30.04,ENE,66,6.0,-999.0,52,-99.99,,,0.00,886,weatherlink.com 1.10,2013-03-29 22:35:00,
2013-03-29 15:50:00,59.8,41.0,30.03,NNE,30,0.0,-999.0,51,-99.99,,,0.00,255,weatherlink.com 1.10,2013-03-29 22:50:00,
2013-03-29 16:05:00,60.8,42.0,30.03,NNE,17,1.0,-999.0,51,-99.99,,,0.00,515,weatherlink.com 1.10,2013-03-29 23:05:00,
2013-03-29 16:20:00,60.3,41.0,30.03,North,355,3.0,-999.0,49,-99.99,,,0.00,239,weatherlink.com 1.10,2013-03-29 23:20:00,
2013-03-29 16:35:00,59.2,40.0,30.03,NW,317,5.0,-999.0,50,-99.99,,,0.00,246,weatherlink.com 1.10,2013-03-29 23:35:00,
2013-03-29 16:50:00,59.5,40.0,30.04,NNW,343,3.0,-999.0,49,-99.99,,,0.00,211,weatherlink.com 1.10,2013-03-29 23:50:00,
2013-03-29 17:05:00,59.3,41.0,30.03,NNE,28,4.0,-999.0,51,-99.99,,,0.00,135,weatherlink.com 1.10,2013-03-30 00:05:00,
2013-03-29 17:20:00,59.5,41.0,30.03,North,360,7.0,-999.0,50,-99.99,,,0.00,422,weatherlink.com 1.10,2013-03-30 00:20:00,
2013-03-29 17:35:00,59.6,40.0,30.03,North,5,8.0,-999.0,49,-99.99,,,0.00,135,weatherlink.com 1.10,2013-03-30 00:35:00,
2013-03-29 17:50:00,58.4,41.0,30.03,North,11,4.0,-999.0,52,-99.99,,,0.00,88,weatherlink.com 1.10,2013-03-30 00:50:00,
2013-03-29 18:05:00,58.6,41.0,30.03,North,5,3.0,-999.0,52,-99.99,,,0.00,81,weatherlink.com 1.10,2013-03-30 01:05:00,
2013-03-29 18:20:00,58.7,41.0,30.03,NNW,341,2.0,-999.0,52,-99.99,,,0.00,132,weatherlink.com 1.10,2013-03-30 01:20:00,
2013-03-29 18:35:00,59.1,41.0,30.02,NNW,338,3.0,-999.0,51,-99.99,,,0.00,105,weatherlink.com 1.10,2013-03-30 01:35:00,
2013-03-29 18:50:00,58.7,41.0,30.02,NE,36,3.0,-999.0,53,-99.99,,,0.00,44,weatherlink.com 1.10,2013-03-30 01:50:00,
2013-03-29 19:05:00,58.0,41.0,30.02,North,5,2.0,-999.0,54,-99.99,,,0.00,19,weatherlink.com 1.10,2013-03-30 02:05:00,
2013-03-29 19:20:00,55.6,41.0,30.03,NNE,17,5.0,-999.0,59,-99.99,,,0.00,9,weatherlink.com 1.10,2013-03-30 02:20:00,
2013-03-29 19:35:00,54.4,41.0,30.03,NNE,17,2.0,-999.0,62,-99.99,,,0.00,0,weatherlink.com 1.10,2013-03-30 02:35:00,
2013-03-29 19:50:00,53.5,41.0,30.03,NNE,15,0.0,-999.0,63,-99.99,,,0.00,0,weatherlink.com 1.10,2013-03-30 02:50:00,
2013-03-29 20:05:00,53.0,41.0,30.03,NNE,15,0.0,-999.0,64,-99.99,,,0.00,0,weatherlink.com 1.10,2013-03-30 03:05:00,
2013-03-29 20:20:00,52.3,41.0,30.04,NNE,15,0.0,-999.0,66,-99.99,,,0.00,0,weatherlink.com 1.10,2013-03-30 03:20:00,
2013-03-29 20:35:00,52.1,41.0,30.05,NNE,15,0.0,-999.0,66,-99.99,,,0.00,0,weatherlink.com 1.10,2013-03-30 03:35:00,
2013-03-29 20:50:00,51.2,41.0,30.05,North,360,3.0,-999.0,68,-99.99,,,0.00,0,weatherlink.com 1.10,2013-03-30 03:50:00,
2013-03-29 21:05:00,51.1,41.0,30.05,WNW,303,3.0,-999.0,69,-99.99,,,0.00,0,weatherlink.com 1.10,2013-03-30 04:05:00,
2013-03-29 21:20:00,50.4,41.0,30.06,WNW,294,4.0,-999.0,70,-99.99,,,0.00,0,weatherlink.com 1.10,2013-03-30 04:20:00,
2013-03-29 21:35:00,50.0,41.0,30.07,WNW,294,3.0,-999.0,71,-99.99,,,0.00,0,weatherlink.com 1.10,2013-03-30 04:35:00,
2013-03-29 21:50:00,49.9,41.0,30.07,WNW,292,2.0,-999.0,71,-99.99,,,0.00,0,weatherlink.com 1.10,2013-03-30 04:50:00,
2013-03-29 22:05:00,49.8,41.0,30.07,WNW,292,3.0,-999.0,72,-99.99,,,0.00,0,weatherlink.com 1.10,2013-03-30 05:05:00,
2013-03-29 22:20:00,49.8,41.0,30.07,WNW,292,3.0,-999.0,72,-99.99,,,0.00,0,weatherlink.com 1.10,2013-03-30 05:20:00,
2013-03-29 22:35:00,48.0,40.0,30.07,WSW,257,4.0,-999.0,75,-99.99,,,0.00,0,weatherlink.com 1.10,2013-03-30 05:35:00,
2013-03-29 22:50:00,49.0,41.0,30.08,WSW,257,4.0,-999.0,75,-99.99,,,0.00,0,weatherlink.com 1.10,2013-03-30 05:50:00,
2013-03-29 23:05:00,49.3,41.0,30.08,WSW,257,3.0,-999.0,74,-99.99,,,0.00,0,weatherlink.com 1.10,2013-03-30 06:05:00,
2013-03-29 23:20:00,47.4,40.0,30.08,WSW,252,5.0,-999.0,75,-99.99,,,0.00,0,weatherlink.com 1.10,2013-03-30 06:20:00,
2013-03-29 23:35:00,46.4,40.0,30.08,WSW,244,5.0,-999.0,79,-99.99,,,0.00,0,weatherlink.com 1.10,2013-03-30 06:35:00,
2013-03-29 23:50:00,46.5,40.0,30.08,WSW,244,5.0,-999.0,78,-99.99,,,0.00,0,weatherlink.com 1.10,2013-03-30 06:50:00,